Location: Harbor View
(36.2448°N, 86.5797°W)
Time: 09:03:42
(UTC+00:00)

CZ-4B R/B - Pass Details

Date: 29 October 2020
Orbit: 388 x 461 km, 97.6° (Epoch: 04 December)

Event Time Altitude Azimuth Distance (km) Brightness Sun altitude
Rises 23:24:23 0° 9° (N) 2,361 4.8 -7.0°
Reaches altitude 10° 23:26:24 10° 8° (N) 1,481 3.8 -7.4°
Maximum altitude 23:29:33 72° 283° (WNW) 427 1.5 -8.1°
Drops below altitude 10° 23:32:36 10° 199° (SSW) 1,436 4.4 -8.7°
Sets 23:34:32 0° 197° (SSW) 2,280 5.4 -9.0°
